Location: Baia de Cri?
(46.1667°N, 22.7167°E)
Time: 09:17:43
(UTC+00:00)

IGS 5A - Pass Details

Date: 15 January 2026
Orbit: 551 x 554 km, 97.4° (Epoch: 8 January)

Event Time Altitude Azimuth Distance (km) Brightness Sun altitude
Rises 04:22:25 0° 12° (NNE) 2,739 6.9 -17.8°
Reaches altitude 10° 04:24:33 10° 13° (NNE) 1,840 6.0 -17.4°
Maximum altitude 04:28:32 86° 99° (E) 560 3.3 -16.7°
Drops below altitude 10° 04:32:30 10° 192° (SSW) 1,825 6.0 -16.1°
Sets 04:34:36 0° 193° (SSW) 2,714 6.9 -15.7°
